Location: Chilton Park
(37.7711°N, 100.0276°W)
Time: 02:58:51
(UTC+00:00)

Cosmos 1500 Rocket - Pass Details

Date: 02 July 2022
Orbit: 602 x 631 km, 82.5° (Epoch: 11 August)

Event Time Altitude Azimuth Distance (km) Brightness Sun altitude
Exits shadow 10:51:18 - 233° (SW) 2,210 5.7 -6.0°
Reaches altitude 10° 10:52:02 10° 240° (WSW) 1,993 5.5 -5.9°
Maximum altitude 10:55:14 19° 286° (WNW) 1,482 5.2 -5.4°
Drops below altitude 10° 10:58:28 10° 333° (NNW) 2,013 6.3 -4.8°
Sets 11:01:17 0° 351° (N) 2,929 7.4 -4.4°
